STARLINK-32831, 62860

Orbit data source: Space-Track

STARLINK-32831, 62860 is a payload satellite owned by SpaceX/Seattle (US) in LEO that was launched on Sat, 01 Feb 2025 UTC via an FALCON 9 launch vehicle from the Air Force Western Test Range (AFWTR). Payload-class satellites include a variety of spacecraft equipped with specific instruments for various scientific and technological missions. These include communications satellites like Starlink; space stations such as the ISS; scientific satellites like the Hubble; Earth observation satellites from companies like Planet Labs, Umbra, and HawkEye 360; GPS; miniature CubeSats for education and research; and military/defense satellites.

Loading next visibility...
Identifier
62860, 2025-022G
Orbit
LEO
Last TLE update
10 hours ago
Origin
Manufacturer
SpaceX/Seattle
Mission
Operational Commercial Communications
Bus & Motor
STARLINK V2M, Unknown motor
Mass
730 kg wet, ~700 kg dry
Launch date (UTC)
2025-02-01 (3 months ago)
Launch vehicle
FALCON 9
Launch site
Air Force Western Test Range (AFWTR)
Object type
Payload
Rocket body
Debris
Shape & HBR
Box + 2 Pan, 29 m
Radar Cross Section
33.884 m², Large (>1 m²)

Expand to show TLE details & history

TLE from 10 hours ago
0 STARLINK-32831
1 62860U 25022G   25128.91668981  .00046062  00000-0  11553-2 0  9994
2 62860  53.1581 109.6139 0001271  95.6454  14.2044 15.39600987  5907
Epoch: 2025-05-08T22:00Z
Definitive object data (Epoch: 2025-05-08T22:00:01.999Z)
Latitude
48.97558°
Longitude
33.71278°
Altitude
452.03 km
Speed
7.648 km/s
True Right ascension
15h 22m 48s
True Declination
48° 47' 51"
Sunlit
Object was in full shadow at TLE epoch
Visualization TLE readout
Latitude
-53.00297°
Longitude
-170.79657°
Altitude
466.461 km
Speed
7.632 km/s
Apparent Right ascension
03h 05m 24s
Apparent Declination
-48° 00' 55"
Sunlit
Object is in daylight
Visualization observer readout
Local Sidereal Time
16:12:55
Azimuth
129.372° SE
Elevation
-75.449°
Doppler factor
1
Orbital elements
Apogee altitude
448.414 km
Perigee altitude
446.679 km
Semi-major axis
6,825.683 km
Eccentricity
0.0001271
Inclination
53.1581°
RAAN
109.6139°
Arg. of periapsis
95.6454°
True anomaly
14.20797°
Mean anomaly
14.2044°
Eccentric anomaly
14.20619°
Mean motion
3.84879 °/min
BSTAR
0.0011553
Orbital period
93.54 mins
Loading maneuver chart data...
Loading SW <> Apogee altitude chart data...
Loading historical data...
Loading historical data...
Loading historical data...
Loading historical data...
Loading historical data...
Loading historical data...
Loading historical data...

STARLINK-32831 Visibility forecast

Observer location: undefined°, undefined°

Span
Click to sort rows by Start time (UTC) header in descending order
Start Az.
Max El. time (UTC)
Max El. Az.
Max El.
End time (UTC)
End Az.
6 mins2025-05-09 08:56:49.185Z295.638° NW2025-05-09 08:59:49.185Z234.83° WSW32.266°2025-05-09 09:02:49.185Z158.706° S
5 mins2025-05-10 01:46:49.185Z256.27° W2025-05-10 01:48:49.185Z310.537° NW35.917°2025-05-10 01:51:49.185Z37.093° NE
|